Location: Unnamed
(51.8936°N, 11.0665°E)
Time: 17:25:57
(UTC+02:00)

CAS-4A - Visible Passes

Search period start: 20 September 2021 00:00
Search period end: 30 September 2021 00:00
Orbit: 529 x 540 km, 43.0° (Epoch: 20 September)

Date Brightness Start Highest point End Pass type
(mag) Time Alt. Az. Time Alt. Az. Time Alt. Az.
20 Sep ? 06:19:35 10° S 06:21:34 13° SSE 06:23:33 10° SE visible
21 Sep ? 06:08:10 10° SSW 06:10:30 15° SSE 06:12:51 10° ESE visible
22 Sep ? 05:56:50 10° SSW 05:59:27 17° SSE 06:02:04 10° ESE visible
23 Sep ? 05:45:39 10° SSW 05:48:23 18° SSE 05:51:13 10° ESE visible
24 Sep ? 05:35:18 14° SSW 05:37:21 20° SSE 05:40:19 10° ESE visible
25 Sep ? 05:24:57 18° SSW 05:26:19 21° S 05:29:23 10° ESE visible
26 Sep ? 05:14:35 21° S 05:15:16 22° S 05:18:26 10° ESE visible
27 Sep ? 05:04:12 23° S 05:04:14 23° S 05:07:27 10° ESE visible
28 Sep ? 04:53:52 22° SSE 04:53:52 22° SSE 04:56:27 10° SE visible
28 Sep ? 06:29:40 10° WSW 06:32:31 19° SSW 06:35:24 10° SSE visible
29 Sep ? 04:43:33 19° SSE 04:43:33 19° SSE 04:45:25 10° SE visible
29 Sep ? 06:18:52 10° WSW 06:21:28 17° SSW 06:24:09 10° SSE visible
